Weather History for Yankton, SD

Change the Weather History Date:

Wednesday, November 21, 2012

  Actual Average Record
Temperature  
Mean Temperature 58 °F -  
Max Temperature 71 °F 41 °F 73 °F (1962)
Min Temperature 44 °F 22 °F -4 °F (1964)
Degree Days  
Heating Degree Days 8    
Growing Degree Days 8 (Base 50)    
Moisture  
Dew Point 34 °F    
Average Humidity 42    
Maximum Humidity 62    
Minimum Humidity 22    
Precipitation  
Precipitation 0.00 in - - ()
Sea Level Pressure  
Sea Level Pressure 29.84 in    
Wind  
Wind Speed 13 mph (South)    
Max Wind Speed 22 mph    
Max Gust Speed 31 mph    
Visibility 10 miles    
Events      
Averages and records for this station are not official NWS values.
T = Trace of Precipitation, MM = Missing Value Source: NWS Daily Summary

Daily Weather History Graph

Daily Weather History Graph

Search for Another Location

Airport:

Trip Planner

Search our weather history database for the weather conditions in past years. The results will help you decide how hot, cold, wet, or windy it might be!

Date:

Astronomy

Nov. 21, 2012 Rise Set
Actual Time 7:29 AM CST 5:00 PM CST
Civil Twilight 6:58 AM CST 5:31 PM CST
Nautical Twilight 6:24 AM CST 6:06 PM CST
Astronomical Twilight 5:50 AM CST 6:40 PM CST
Moon 1:26 PM CST (11/21) 12:41 AM CST (11/21)
Length of Visible Light 10h 33m
Length of Day
9h 31m
First Quarter, 62% of the Moon is Illuminated
Nov 21
First Quarter
Nov 28
Full
Dec 6
Last Quarter
Dec 13
New
Dec 19
First Quarter

Hourly Weather History & Observations

Time (CST) Temp. Windchill Dew Point Humidity Pressure Visibility Wind Dir Wind Speed Gust Speed Precip Events Conditions
12:15 AM 55.4 °F - 33.8 °F 44% 29.97 in 10.0 mi SW 17.3 mph 23.0 mph N/A   Clear
12:35 AM 55.4 °F - 33.8 °F 44% 29.97 in 10.0 mi SSW 16.1 mph 25.3 mph N/A   Clear
12:55 AM 55.4 °F - 33.8 °F 44% 29.97 in 10.0 mi SSW 16.1 mph 24.2 mph N/A   Clear
1:15 AM 53.6 °F - 33.8 °F 47% 29.97 in 10.0 mi SSW 19.6 mph 23.0 mph N/A   Clear
1:35 AM 51.8 °F - 33.8 °F 50% 29.97 in 10.0 mi SSW 11.5 mph - N/A   Clear
1:55 AM 51.8 °F - 33.8 °F 50% 29.96 in 10.0 mi South 15.0 mph - N/A   Clear
2:15 AM 51.8 °F - 33.8 °F 50% 29.96 in 10.0 mi SSW 12.7 mph - N/A   Clear
2:35 AM 51.8 °F - 33.8 °F 50% 29.96 in 10.0 mi South 13.8 mph - N/A   Clear
2:55 AM 51.8 °F - 33.8 °F 50% 29.96 in 10.0 mi SSW 11.5 mph - N/A   Clear
3:15 AM 51.8 °F - 33.8 °F 50% 29.97 in 10.0 mi SSW 8.1 mph - N/A   Clear
3:35 AM 51.8 °F - 33.8 °F 50% 29.96 in 10.0 mi SSW 9.2 mph - N/A   Clear
3:55 AM 51.8 °F - 33.8 °F 50% 29.96 in 10.0 mi South 9.2 mph - N/A   Clear
4:15 AM 50.0 °F - 33.8 °F 54% 29.95 in 10.0 mi SSW 11.5 mph - N/A   Clear
4:35 AM 48.2 °F - 33.8 °F 58% 29.94 in 10.0 mi SSW 10.4 mph - N/A   Clear
4:55 AM 48.2 °F - 33.8 °F 58% 29.95 in 10.0 mi SSW 6.9 mph - N/A   Clear
5:15 AM 48.2 °F - 33.8 °F 58% 29.95 in 10.0 mi SSW 6.9 mph - N/A   Clear
5:35 AM 48.2 °F - 33.8 °F 58% 29.94 in 10.0 mi South 6.9 mph - N/A   Clear
5:55 AM 48.2 °F - 33.8 °F 58% 29.94 in 10.0 mi SSW 5.8 mph - N/A   Clear
6:15 AM 48.2 °F - 32.0 °F 54% 29.94 in 10.0 mi SSW 9.2 mph - N/A   Clear
6:35 AM 48.2 °F - 33.8 °F 58% 29.94 in 10.0 mi South 9.2 mph - N/A   Clear
6:55 AM 48.2 °F - 32.0 °F 54% 29.93 in 10.0 mi South 10.4 mph - N/A   Clear
7:15 AM 48.2 °F - 33.8 °F 58% 29.93 in 10.0 mi South 9.2 mph - N/A   Clear
7:35 AM 48.2 °F - 32.0 °F 54% 29.94 in 10.0 mi South 8.1 mph - N/A   Clear
7:55 AM 44.6 °F 39.7 °F 30.2 °F 57% 29.94 in 10.0 mi SSE 9.2 mph - N/A   Clear
8:15 AM 46.4 °F 42.9 °F 32.0 °F 57% 29.94 in 10.0 mi SE 6.9 mph - N/A   Clear
8:35 AM 46.4 °F 43.5 °F 33.8 °F 62% 29.94 in 10.0 mi SE 5.8 mph - N/A   Clear
8:55 AM 50.0 °F - 33.8 °F 54% 29.93 in 10.0 mi South 12.7 mph - N/A   Clear
9:15 AM 51.8 °F - 33.8 °F 50% 29.93 in 10.0 mi South 11.5 mph - N/A   Clear
9:35 AM 53.6 °F - 33.8 °F 47% 29.92 in 10.0 mi South 10.4 mph - N/A   Clear
9:55 AM 55.4 °F - 33.8 °F 44% 29.92 in 10.0 mi SSW 9.2 mph - N/A   Clear
10:15 AM 57.2 °F - 33.8 °F 41% 29.91 in 10.0 mi South 12.7 mph - N/A   Clear
10:35 AM 57.2 °F - 33.8 °F 41% 29.91 in 10.0 mi South 8.1 mph - N/A   Clear
10:55 AM 59.0 °F - 33.8 °F 39% 29.90 in 10.0 mi South 11.5 mph - N/A   Clear
11:15 AM 60.8 °F - 33.8 °F 36% 29.88 in 10.0 mi South 10.4 mph - N/A   Clear
11:35 AM 62.6 °F - 33.8 °F 34% 29.87 in 10.0 mi South 16.1 mph 19.6 mph N/A   Clear
11:55 AM 64.4 °F - 33.8 °F 32% 29.85 in 10.0 mi South 18.4 mph 24.2 mph N/A   Clear
12:15 PM 66.2 °F - 33.8 °F 30% 29.84 in 10.0 mi South 16.1 mph 23.0 mph N/A   Clear
12:35 PM 66.2 °F - 33.8 °F 30% 29.83 in 10.0 mi SSW 16.1 mph 26.5 mph N/A   Clear
12:55 PM 69.8 °F - 32.0 °F 25% 29.81 in 10.0 mi SSW 18.4 mph 25.3 mph N/A   Clear
1:15 PM 69.8 °F - 32.0 °F 25% 29.81 in 10.0 mi SSW 20.7 mph 29.9 mph N/A   Clear
1:35 PM 69.8 °F - 33.8 °F 27% 29.80 in 10.0 mi South 16.1 mph 26.5 mph N/A   Clear
1:55 PM 69.8 °F - 33.8 °F 27% 29.79 in 10.0 mi SSW 17.3 mph 26.5 mph N/A   Clear
2:15 PM 71.6 °F - 32.0 °F 23% 29.77 in 10.0 mi South 21.9 mph 31.1 mph N/A   Clear
2:35 PM 71.6 °F - 33.8 °F 25% 29.77 in 10.0 mi South 12.7 mph 19.6 mph N/A   Clear
2:55 PM 71.6 °F - 30.2 °F 22% 29.76 in 10.0 mi SSW 21.9 mph 28.8 mph N/A   Clear
3:15 PM 71.6 °F - 30.2 °F 22% 29.76 in 10.0 mi South 21.9 mph - N/A   Clear
3:35 PM 71.6 °F - 30.2 °F 22% 29.75 in 10.0 mi South 19.6 mph 27.6 mph N/A   Clear
3:55 PM 71.6 °F - 30.2 °F 22% 29.75 in 10.0 mi South 21.9 mph - N/A   Clear
4:15 PM 69.8 °F - 32.0 °F 25% 29.75 in 10.0 mi South 19.6 mph 25.3 mph N/A   Clear
4:35 PM 68.0 °F - 33.8 °F 28% 29.75 in 10.0 mi South 15.0 mph 20.7 mph N/A   Clear
4:55 PM 68.0 °F - 35.6 °F 30% 29.74 in 10.0 mi South 15.0 mph - N/A   Clear
5:15 PM 66.2 °F - 35.6 °F 32% 29.74 in 10.0 mi South 15.0 mph - N/A   Clear
5:35 PM 66.2 °F - 35.6 °F 32% 29.74 in 10.0 mi South 15.0 mph 20.7 mph N/A   Clear
5:55 PM 64.4 °F - 35.6 °F 34% 29.74 in 10.0 mi South 6.9 mph - N/A   Clear
6:15 PM 64.4 °F - 37.4 °F 37% 29.74 in 10.0 mi South 8.1 mph - N/A   Clear
6:35 PM 62.6 °F - 37.4 °F 39% 29.74 in 10.0 mi South 11.5 mph - N/A   Clear
6:55 PM 62.6 °F - 37.4 °F 39% 29.73 in 10.0 mi South 12.7 mph 18.4 mph N/A   Clear
7:15 PM 62.6 °F - 37.4 °F 39% 29.73 in 10.0 mi South 13.8 mph - N/A   Clear
7:35 PM 62.6 °F - 37.4 °F 39% 29.72 in 10.0 mi South 11.5 mph - N/A   Clear
7:55 PM 60.8 °F - 37.4 °F 42% 29.72 in 10.0 mi South 12.7 mph - N/A   Clear
8:15 PM 60.8 °F - 37.4 °F 42% 29.72 in 10.0 mi SSW 11.5 mph - N/A   Clear
8:35 PM 60.8 °F - 37.4 °F 42% 29.72 in 10.0 mi South 13.8 mph - N/A   Clear
8:55 PM 59.0 °F - 37.4 °F 45% 29.71 in 10.0 mi South 13.8 mph - N/A   Clear
9:15 PM 59.0 °F - 35.6 °F 42% 29.71 in 10.0 mi South 15.0 mph - N/A   Clear
9:35 PM 60.8 °F - 35.6 °F 39% 29.71 in 10.0 mi South 16.1 mph - N/A   Clear
9:55 PM 60.8 °F - 35.6 °F 39% 29.71 in 10.0 mi SSW 17.3 mph 23.0 mph N/A   Clear
10:15 PM 57.2 °F - 35.6 °F 44% 29.71 in 10.0 mi SSW 11.5 mph - N/A   Clear
10:35 PM 57.2 °F - 35.6 °F 44% 29.71 in 10.0 mi SSW 10.4 mph - N/A   Clear
10:55 PM 57.2 °F - 35.6 °F 44% 29.70 in 10.0 mi South 11.5 mph - N/A   Clear
11:15 PM 57.2 °F - 35.6 °F 44% 29.70 in 10.0 mi South 13.8 mph 18.4 mph N/A   Clear
11:35 PM 57.2 °F - 35.6 °F 44% 29.69 in 10.0 mi SSW 15.0 mph - N/A   Clear
11:55 PM 57.2 °F - 33.8 °F 41% 29.68 in 10.0 mi South 11.5 mph - N/A   Clear